Location: Tucson
(32.2220°N, 110.9260°W)
Time: 22:16:23
(UTC-07:00)

ISS - Visible Passes

Search period start: 18 February 2019 00:00
Search period end: 28 February 2019 00:00
Orbit: 403 x 411 km, 51.6° (Epoch: 19 February)

Date Brightness Start Highest point End Pass type
(mag) Time Alt. Az. Time Alt. Az. Time Alt. Az.
19 Feb -0.7 06:27:09 10° SSE 06:29:12 16° SE 06:31:15 10° E visible
21 Feb -2.8 06:19:25 10° SSW 06:22:34 48° SE 06:25:43 10° ENE visible
22 Feb -1.4 05:28:37 10° S 05:31:11 22° SE 05:33:47 10° ENE visible
23 Feb -0.4 04:40:16 10° ESE 04:40:16 10° ESE 04:40:22 10° ESE visible
23 Feb -3.6 06:13:03 11° WSW 06:16:01 49° NW 06:19:12 10° NE visible
24 Feb -3.8 05:24:26 72° SSE 05:24:31 72° SE 05:27:46 10° NE visible
25 Feb -0.5 04:35:35 13° ENE 04:35:35 13° ENE 04:36:00 10° ENE visible
25 Feb -2.2 06:08:19 16° WNW 06:09:38 19° NW 06:12:04 10° NNE visible
26 Feb -2.1 05:19:16 24° N 05:19:16 24° N 05:21:00 10° NNE visible
